Location: ????????
(60.4333°N, 46.4710°E)
Time: 04:45:50
(UTC+00:00)

Cosmos 1697 Rocket - Pass Details

Date: 25 November 2020
Orbit: 831 x 845 km, 71.0° (Epoch: 19 January)

Event Time Altitude Azimuth Distance (km) Brightness Sun altitude
Rises 16:55:10 0° 313° (NW) 3,408 6.7 -34.4°
Reaches altitude 10° 16:57:43 10° 319° (NW) 2,473 5.7 -34.7°
Enters shadow 17:00:45 30° 338° (NNW) 1,478 4.2 -35.0°
